Погода в Тумнине

Погода в Тумнине : погода сейчас, прогноз погоды и архив. Всё, что Вы хотите узнать о погоде в Тумнине!

Поиск расширенной информации на нашем сайте:

Другие новости

Новости СМИ2

Главная страница сайта

Новости сайта

02.10.2013

Напоминаем, что на нашем новом сайте вы можете получить высокодетализированные прогнозы погоды по пунктам России, СНГ и мира (включающие важные для авиации метеовеличины, такие как направление и скорость ветра, видимость, явления погоды, количество и форма облачности, нижняя и верхняя граница облачности), а также ознакомиться с разнообразными материалами по авиационной метеорологии и подборкой полезных ссылок на эту тему.

Сайт Метеоцентр.Азия посвящён разработке технологий оптимизации авиаметеорологического обслуживания, включая проектирование и перспективное создание нескольких автоматизированных авиаметеорологических систем:
- система выпуска высокодетальных прогностических карт явлений погоды для нижнего воздушного пространства по России и ближнему зарубежью;
- система верификации прогнозов TAF (выпускаемых синоптиками официальных АМСГ РФ и ближнего зарубежья) и AUTOTAF (выпускаемых сайтом Метеоцентр.Азия) - выявление ошибок, онлайн-сопоставление с фактической погодой METAR, автоматическое внесение коррективов в прогнозы при резком отклонении фактической погоды от прогноза, подсчёт оправдываемости прогнозов по элементам и в целом;
- система обработки, анализа и отображения авиаметеорологической информации для применения провайдерами метеорологической информации.

Рекомендуем: Павильон стандарт ячеистый поликарбонат.

Погода в Тумнине - сегодня

Время (UTC), дата Ветер
(°,м/с) 
Видим.   Явления Облачность Т
(°С)
Тd
(°С)
f(%) Тe
(°С)
Pmin
(гПа)
dP
(гПа)
Po
(мм)
O2
(г/м3)
Тmin Tmax R s Состояние
почвы
18 19.05.17 250 (З) 20000 м    8/4 1000 м кучево-дожд., средняя 
[Cb cap|Ac trans]
+11.4 +0.9 48 +12  1004.3  3.7  748  289           
21 19.05.17 280 (З) 20000 м    3/3 1000 м кучево-дожд. 
[Cb cap]
+11.6 -1 42 +12  1007.3  750  290  +7.2        сухая 
00 20.05.17 120 (ЮВ) 20000 м    6/3 1000 м кучево-дожд., средняя 
[Cb cap|Ac trans]
+12.8 +0.5 43 +13  1009.3  752  289           
03 20.05.17 230 (ЮЗ) 20000 м    9/8 1000 м кучево-дожд., средняя 
[Cb cap|Ac trans]
+11.4 +2.1 53 +11  1011  1.7  753  291           
06 20.05.17 230 (ЮЗ) 20000 м    8/6 1000 м кучево-дожд., средняя 
[Cb cap|Ac trans]
+13.2 +2 47 +14  1010.9  0.1  753  289           
09 20.05.17 170 (Ю) 20000 м    8/3 1000 м кучево-дожд., средняя, верхняя 
[Cb cap|Ac trans|Ci fib]
+11.6 -0.9 42 +12  1012.6  1.7  754  292    +14.5       
12 20.05.17 тихо ()   20000 м    6/3 1000 м кучево-дожд., средняя 
[Cb cap|Ac trans]
+5.9 +1.4 73 +6  1014.3  1.5  755  298           
15 20.05.17 тихо ()   20000 м    6/0 средняя, верхняя 
[Ac trans|Ci fib]
+4.2 +0.3 76 +4  1013.9  -0.5  755  300           
18 20.05.17 тихо ()   20000 м    4/0 средняя, верхняя 
[Ac trans|Ci fib]
+0 -1.3 91 1013.6  -0.4  755  304           
21 20.05.17 тихо ()   20000 м    6/3 1000 м средняя, верхняя 
[Sc|Ac trans|Ci fib]
+4.3 +0.3 75 +4  1012.5  -1  754  299  -1        сухая 
00 21.05.17 170 (Ю) 20000 м    4/4 1000 м кучево-дожд. 
[Cb cap]
+12.9 +1.6 46 +13  1008.7  -3.6  751  289           
03 21.05.17 320 (СЗ) 5{14}  20000 м    3/3 1000 м кучево-дожд. 
[Cb cap]
+17.5 -1.1 28 +18  1007.6  -0.9  751  284           
06 21.05.17 270 (З) 5-14{14}  20000 м    6/6 1000 м кучево-дожд. 
[Cb cap]
+16.4 -8.2 18 +16  1008.2  0.5  751  286           
09 21.05.17 300 (СЗ) 3{14}  20000 м    6/3 1000 м кучево-дожд., средняя 
[Cb cap|Ac trans]
+14.6 -14.3 12 +15  1009.8  1.6  752  289    +18.8       
12 21.05.17 320 (СЗ) 20000 м    3/0 средняя 
[Ac trans]
+3 -2.1 69 +4  1013.9  3.8  755  301           
15 21.05.17 тихо ()   20000 м    6/3 1000 м кучево-дожд., средняя 
[Cb cap|Ac trans]
-1.7 -3.5 87 -2  1015.1  756  307           
18 21.05.17 тихо ()   20000 м    3/0 средняя 
[Ac trans]
-3.9 -4.7 94 -4  1015.6  0.5  756  310           
21 21.05.17 060 (СВ) 20000 м    ясно 
+0.3 -2.3 83 +1  1016.3  0.7  757  305  -4.3        сухая 
00 22.05.17 190 (Ю) 20000 м    ясно 
+14.8 -6.3 23 +15  1012.7  -3.1  754  289           
03 22.05.17 250 (З) 5-10{12}  20000 м    3/3 1000 м 
[Cu hum]
+18.2 -9.8 14 +18  1010.6  -2  753  285           
06 22.05.17 280 (З) 5{13}  20000 м    8/8 1000 м 
[Cu hum]
+19.7 -8.5 14 +20  1009.7  -0.9  752  283           
09 22.05.17 270 (З) 3{11}  20000 м    3/0 средняя 
[Ac trans]
+19 -8.6 15 +20  1009.5  -0.2  752  284    +20.3       
12 22.05.17 тихо ()   20000 м    6/0 средняя 
[Ac und]
+7.4 -1.9 52 +7  1011.5  1.7  753  296           
15 22.05.17 тихо ()   20000 м    6/0 средняя, верхняя 
[Ac und|Ci]
+1.7 -2.7 73 +2  1012.5  0.8  754  302           
18 22.05.17 060 (СВ) 20000 м    6/0 средняя, верхняя 
[Ac und|Ci fib]
-1.3 -3.8 83 -1  1012.6  754  306           
Время (UTC), дата Ветер
(°,м/с) 
Видим.   Явления Облачность Т
(°С)
Тd
(°С)
f(%) Тe
(°С)
Pmin
(гПа)
dP
(гПа)
Po
(мм)
O2
(г/м3)
Тmin Tmax R s Состояние
почвы

Для получения пояснительной информации подведите курсор к названию столбца.

ПОГОДА в Тумнине - архив

Всё, что Вы хотите узнать о погоде в Тумнине - удобно и подробно!

Выберите нужную дату (начиная с 1 января 2015* года) и нажмите кнопку "Найти".
Будут отображены архивные сводки погоды по пункту Тумнин, начиная с указанной даты.


Отображать данные в формате CSV (для использования в таблицах Excel)


Внимание! Наш архив погоды предназначен исключительно для личного некоммерческого использования в познавательных целях. Если Вам необходимы официальные справки о состоянии погоды (для производственных, юридических, коммерческих и т.п. целей), обращайтесь в органы Росгидромета.

*Примечание: данная дата относится к архиву по метеостанциям СССР (Россия, СНГ, Балтия).
Архив по метеостанциям Зарубежной Европы и Азии (кроме Китая) хранится 10 дней, по другим регионам земного шара (Китай, Африка, Америка, Австралия, Океания) - 1 день.

Тумнин - район местоположения метеостанции


Название, широта, долгота, высота метеостанции:
Тумнин 49.7°ш. 140.1°д. 58 м над ур. моря [Российская Федерация]

Дополнительная информация

В oтличие oт бoльшинства пoгoдных сайтoв мы публикуем пoдрoбную метеoинфoрмацию в детальнoм прoфессиoнальнoм фoрмате.

Характеристики температуры и влажнoсти вoздуха измеряются на высoте 2 м в тени вдали oт зданий и деревьев.
Скoрoсть ветра измеряется на высoте 10 м (на урoвне рoста челoвека скoрoсть ветра ниже в 1.5-2 раза). Если метеoстанция нахoдится в гoрoде или в лесу, тo скoрoсть ветра занижена на 2-4 м/с пo сравнению с oткрытым местoм. Скoрoсть ветра над акватoриями крупных рек и oзёр, а также на вершинах хoлмoв на 2-5 м/с выше, чем в oбычных услoвиях.
Атмoсфернoе давление в разных тoчках местнoсти мoжет значительнo oтличаться oт давления на метеoстанции, в зависимoсти oт услoвий рельефа (при пoдъёме на 10 м давление пoнижается примернo на 1 мм рт.ст.).